EW4052 Weather Reports


time (UTC)temp
F
wind
direction
speed
knots
gust
knots
rain 1hr
in
rain 24hr
in
rain mn
in
humidity
%
barometer
mb
20260510031521 52 272 2.6 6.1 0.00 0.00 0.00 44 1013.8
20260510030021 52 267 2.6 7.0 0.00 0.00 0.00 43 1013.6
20260510024526 53 266 2.6 7.0 0.00 0.00 0.00 44 1013.5
20260510023014 54 265 4.3 7.8 0.00 0.00 0.00 41 1013.2
20260510021514 54 270 5.2 9.6 0.00 0.00 0.00 40 1012.8
20260510020011 55 268 4.3 8.7 0.00 0.00 0.00 41 1012.4
20260510014506 56 270 6.1 9.6 0.00 0.00 0.00 37 1012.0
20260510013003 57 298 6.1 12.2 0.00 0.00 0.00 39 1011.5
20260510011601 57 282 7.8 11.3 0.00 0.00 0.00 37 1011.2
20260510010058 58 281 8.7 12.2 0.00 0.00 0.00 35 1011.0
20260510004557 59 273 10.4 13.9 0.00 0.00 0.00 36 1010.7
20260510003055 60 268 11.3 16.5 0.00 0.00 0.00 35 1010.4
20260510001554 61 306 10.4 15.6 0.00 0.00 0.00 34 1010.2
20260510000051 61 296 10.4 18.2 0.00 0.00 0.00 34 1009.9
20260509234548 62 271 8.7 17.4 0.00 0.00 0.00 35 1009.8
20260509233047 62 293 10.4 15.6 0.00 0.00 0.00 33 1009.6
20260509231554 62 288 11.3 16.5 0.00 0.00 0.00 33 1009.4
20260509230044 62 276 12.2 22.6 0.00 0.00 0.00 35 1009.4
20260509224543 63 286 12.2 17.4 0.00 0.00 0.00 36 1009.2
20260509223042 63 269 12.2 20.0 0.00 0.00 0.00 33 1009.0
20260509221539 63 294 12.2 20.0 0.00 0.00 0.00 36 1008.8
20260509220040 64 287 8.7 16.5 0.00 0.00 0.00 33 1008.6
20260509214537 64 260 13.0 18.2 0.00 0.00 0.00 32 1008.5
20260509213036 64 274 13.9 20.9 0.00 0.00 0.00 33 1008.3
20260509211539 65 284 12.2 20.0 0.00 0.00 0.00 34 1008.3
20260509210038 64 279 13.9 19.1 0.00 0.00 0.00 34 1008.1
20260509204531 64 275 11.3 20.0 0.00 0.00 0.00 36 1008.0
20260509203031 64 261 13.0 17.4 0.00 0.00 0.00 35 1007.9
20260509201529 64 269 13.0 20.9 0.00 0.00 0.00 35 1007.8
20260509200026 64 292 12.2 21.7 0.00 0.00 0.00 38 1007.7
20260509194528 64 317 13.0 21.7 0.00 0.00 0.00 38 1007.5
20260509193023 64 281 12.2 20.9 0.00 0.00 0.00 37 1007.5
20260509191523 64 247 11.3 19.1 0.00 0.00 0.00 39 1007.5
20260509190020 63 291 11.3 19.1 0.00 0.00 0.00 43 1007.2
20260509184531 63 262 15.6 20.9 0.00 0.00 0.00 42 1007.1
20260509183018 63 306 10.4 20.0 0.00 0.00 0.00 43 1007.0
20260509181517 63 250 9.6 15.6 0.00 0.00 0.00 46 1007.0
20260509180015 62 284 7.0 17.4 0.00 0.00 0.00 47 1006.7
20260509174513 62 272 13.0 20.0 0.00 0.00 0.00 48 1006.7
20260509173010 62 279 12.2 20.0 0.00 0.00 0.00 48 1006.6
20260509171511 61 284 7.8 20.0 0.00 0.00 0.00 53 1006.7
20260509170007 60 266 13.9 20.9 0.00 0.00 0.00 54 1006.6
20260509164503 60 266 15.6 19.1 0.00 0.00 0.00 57 1006.4
20260509163001 59 242 13.0 20.9 0.00 0.00 0.00 57 1006.3
20260509161602 59 273 11.3 16.5 0.00 0.00 0.00 62 1006.2
20260509160059 58 259 13.9 20.0 0.00 0.00 0.00 62 1006.0
20260509154558 58 285 13.9 17.4 0.00 0.00 0.00 63 1005.8
20260509153058 57 270 11.3 19.1 0.00 0.00 0.00 65 1005.8
20260509151655 57 271 11.3 20.0 0.00 0.00 0.00 65 1005.7
20260509150056 57 248 13.9 20.0 0.00 0.00 0.00 64 1005.5
20260509144555 56 242 13.9 21.7 0.00 0.00 0.00 66 1005.7
20260509143055 56 253 12.2 20.9 0.00 0.00 0.00 65 1005.5
20260509141600 56 251 12.2 18.2 0.00 0.00 0.00 63 1005.2
20260509140059 56 266 8.7 19.1 0.00 0.00 0.00 61 1005.0
20260509134548 54 237 5.2 7.0 0.00 0.00 0.00 59 1005.2
20260509133047 54 246 0.0 3.5 0.00 0.00 0.00 57 1004.7
20260509131546 54 267 1.7 6.1 0.00 0.00 0.00 58 1004.9
20260509130048 53 277 4.3 8.7 0.00 0.00 0.00 57 1004.9
20260509124547 53 258 5.2 12.2 0.00 0.00 0.00 57 1004.9
20260509123051 52 244 6.1 13.0 0.00 0.00 0.00 56 1004.5
20260509121540 52 248 7.8 13.0 0.00 0.00 0.00 60 1004.6
20260509120138 51 220 7.8 12.2 0.00 0.00 0.00 58 1004.1
20260509114540 49 236 10.4 17.4 0.00 0.00 0.00 61 1004.1
20260509113042 47 239 3.5 9.6 0.00 0.00 0.00 57 1003.6
20260509111544 45 229 0.0 7.0 0.00 0.00 0.00 58 1002.4
20260509110032 45 224 0.0 6.1 0.00 0.00 0.00 59 1002.0
20260509104531 45 182 0.0 2.6 0.00 0.00 0.00 59 1002.1
20260509103029 45 204 0.0 0.0 0.00 0.00 0.00 57 1002.2
20260509101530 46 203 0.0 1.7 0.00 0.00 0.00 56 1002.3
20260509100024 48 199 0.0 7.0 0.00 0.00 0.00 53 1002.4
20260509094527 49 217 1.7 9.6 0.00 0.00 0.00 50 1002.7
20260509093022 48 196 0.0 7.0 0.00 0.00 0.00 52 1002.7
20260509091521 47 185 1.7 7.8 0.00 0.00 0.00 53 1002.7
20260509090019 48 198 0.0 3.5 0.00 0.00 0.00 52 1002.2
20260509084517 48 208 0.9 4.3 0.00 0.00 0.00 53 1002.5
20260509083015 48 224 0.0 1.7 0.00 0.00 0.00 52 1002.5
20260509081510 50 229 0.0 0.0 0.00 0.00 0.00 50 1002.8
20260509080010 50 229 0.0 2.6 0.00 0.00 0.00 49 1002.9
20260509074508 50 232 0.0 0.0 0.00 0.00 0.00 49 1002.8
20260509073008 50 232 0.0 1.7 0.00 0.00 0.00 51 1002.9
20260509071504 53 234 0.0 3.5 0.00 0.00 0.00 50 1003.0
20260509064554 55 239 2.6 5.2 0.00 0.00 0.00 57 1003.5
20260509063059 56 244 2.6 4.3 0.00 0.00 0.00 55 1003.6
20260509061605 56 244 2.6 5.2 0.00 0.00 0.00 51 1003.5
20260509060048 57 247 3.5 5.2 0.00 0.00 0.00 53 1003.6
20260509054555 57 251 2.6 4.3 0.00 0.00 0.00 50 1003.4
20260509053056 58 253 2.6 4.3 0.00 0.00 0.00 51 1003.5
20260509051547 59 261 4.3 7.0 0.00 0.00 0.00 46 1003.6
20260509050038 59 269 4.3 7.0 0.00 0.00 0.00 46 1003.7
20260509044544 59 260 3.5 6.1 0.00 0.00 0.00 46 1003.7
20260509043036 60 262 3.5 7.0 0.00 0.00 0.00 45 1003.5
20260509041536 60 261 4.3 7.0 0.00 0.00 0.00 45 1003.5
20260509040038 61 259 4.3 6.1 0.00 0.00 0.00 48 1003.5
20260509034537 61 274 4.3 6.1 0.00 0.00 0.00 47 1003.4
20260509033035 61 272 4.3 6.1 0.00 0.00 0.00 48 1003.3